Home   Weather   Codrington (Barbuda)   Past weeks
Flag for Antigua and Barbuda

Past Weather in Codrington (Barbuda), Antigua and Barbuda — Yesterday and Last 2 Weeks

Now
75 °F

Passing clouds.


Feels Like: 77 °F
Forecast: 82 / 72 °F
Wind: 6 mph from East

Location: Vc Bird International Antigua Airport

Current Time: Mar 31, 2020 at 9:57:33 pm

Latest Report: Mar 31, 2020 at 9:00 pm


Visibility: N/A

Pressure: 29.95 "Hg

Humidity: 74%

Dew Point: 66 °F

Location of Codrington (Barbuda)Location

Past Weather in Codrington (Barbuda) — Graph

°F

Codrington (Barbuda) Temperature Yesterday

Maximum temperature yesterday: 82 °F (at 1:00 pm)
Minimum temperature yesterday: 73 °F (at 5:00 am)
Average temperature yesterday: 77 °F

High & Low Weather Summary for the Past Weeks

 TemperatureHumidityPressure
High82 °F (Mar 17, 11:00 am)100% (Mar 24, 1:00 am)30.12 "Hg (Mar 24, 1:00 am)
Low68 °F (Mar 17, 6:00 am)58% (Mar 17, 12:00 pm)29.89 "Hg (Mar 27, 2:00 am)
Average77 °F75%30.02 "Hg
* Reported Mar 16 8:00 pm — Mar 31 8:00 pm, Codrington (Barbuda). Weather by CustomWeather, © 2020

Note: Actual official high and low records may vary slightly from our data, if they occured in-between our weather recording intervals... More about our weather records

Codrington (Barbuda) Weather History for the Previous 24 Hours

Scroll right to see more
 ConditionsComfort  
Time TempWeatherWind HumidityBarometerVisibility
8:00 pm
Tue, Mar 31
75 °FPassing clouds.6 mph74%29.95 "HgN/A
7:00 pm75 °FPassing clouds.6 mph74%29.92 "HgN/A
6:00 pm77 °FPassing clouds.7 mph69%29.92 "HgN/A
5:00 pm79 °FPassing clouds.7 mph65%29.92 "HgN/A
4:00 pm81 °FPassing clouds.10 mph62%29.92 "HgN/A
3:00 pm79 °FPassing clouds.10 mph65%29.92 "HgN/A
2:00 pm81 °FPassing clouds.10 mph62%29.92 "HgN/A
1:00 pm82 °FPassing clouds.13 mph62%29.92 "HgN/A
12:00 pm81 °FScattered clouds.14 mph62%29.95 "HgN/A
11:00 am79 °FScattered clouds.13 mph70%29.98 "HgN/A
10:00 am81 °FScattered clouds.10 mph70%29.98 "HgN/A
8:00 am77 °FPartly sunny.9 mph74%29.98 "HgN/A
7:00 am77 °FScattered showers. Partly sunny.10 mph74%29.95 "HgN/A
6:00 am75 °FPassing clouds.7 mph74%29.92 "HgN/A
5:00 am75 °FPassing clouds.6 mph78%29.92 "HgN/A
4:00 am75 °FPassing clouds.6 mph74%29.92 "HgN/A
3:00 am75 °FPassing clouds.6 mph74%29.92 "HgN/A
2:00 am75 °FPassing clouds.5 mph74%29.92 "HgN/A
1:00 am75 °FSprinkles. Passing clouds.7 mph74%29.95 "HgN/A
12:00 am75 °FPassing clouds.8 mph69%29.98 "HgN/A
11:00 pm
Mon, Mar 30
75 °FPassing clouds.10 mph65%29.98 "HgN/A
10:00 pm75 °FPassing clouds.9 mph65%30.01 "HgN/A
9:00 pm75 °FPassing clouds.10 mph69%30.01 "HgN/A
Weather by CustomWeather, © 2020

See weather overview

Advertising